This is the latest recevied weather packets stored in our database for station/object XE2MDH-15. If no packets are shown the sender has not sent any weather packets the latest 10 day(s).
| Time | Temp. | Humidity | Pressure | Rain* | Wind** | Luminosity | Snow |
|---|---|---|---|---|---|---|---|
| 1777827285 | 29.44° C | 29% | 811.7 hPa | - | - | - | - |
| 1777826243 | 29.44° C | 29% | 811.9 hPa | - | - | - | - |
| 1777825470 | 32.22° C | 31% | 811.9 hPa | - | - | - | - |
| 1777824569 | 27.22° C | 31% | 811.9 hPa | - | - | - | - |
| 1777823430 | 26.11° C | 31% | 812 hPa | - | - | - | - |
| 1777822419 | 25° C | 31% | 812.2 hPa | - | - | - | - |
| 1777820307 | 16.11° C | 27% | 811.8 hPa | - | - | - | - |
| 1777819325 | 15° C | 26% | 811.8 hPa | - | - | - | - |
| 1777818281 | 13.33° C | 25% | 811.8 hPa | - | - | - | - |
| 1777817269 | 10.56° C | 24% | 811.3 hPa | - | - | - | - |
| 1777815946 | 8.89° C | 24% | 811.2 hPa | - | - | - | - |
| 1777814527 | 6.11° C | 24% | 810.8 hPa | - | - | - | - |
| 1777811123 | 4.44° C | 22% | 809.8 hPa | - | - | - | - |
| 1777790376 | 11.67° C | 18% | 809.9 hPa | - | - | - | - |
| 1777788481 | 17.78° C | 18% | 810.1 hPa | - | - | - | - |
| 1777787581 | 18.33° C | 18% | 810.1 hPa | - | - | - | - |
| 1777786681 | 18.33° C | 18% | 810.1 hPa | - | - | - | - |
| 1777785784 | 18.89° C | 18% | 809.9 hPa | - | - | - | - |
| 1777784884 | 18.89° C | 18% | 809.9 hPa | - | - | - | - |
| 1777783984 | 19.44° C | 18% | 809.8 hPa | - | - | - | - |
| 1777783083 | 20° C | 18% | 809.4 hPa | - | - | - | - |
| 1777782183 | 20° C | 18% | 809.1 hPa | - | - | - | - |
| 1777781283 | 20.56° C | 18% | 808.9 hPa | - | - | - | - |
| 1777780383 | 21.11° C | 17% | 808.8 hPa | - | - | - | - |
| 1777779483 | 21.67° C | 17% | 808.5 hPa | - | - | - | - |
* Rain since midnight (hover to see other rain measurements)
** Current wind speed in m/s (hover to see current wind gust speed)